Regional Weather Roundup
Issued by NWS

Home | Current Version | Previous Version | Graphics & Text | Print | Product List | Glossary On
Versions: 1 2 3 4 5 6 7 8 9 10 11 12 13 14 15 16 17 18 19 20 21 22 23 24 25 26 27
000
ASUS45 KTFX 281310
RWRMT
MONTANA REGIONAL WEATHER ROUNDUP
NATIONAL WEATHER SERVICE GREAT FALLS MT
700 AM MDT SUN AUG 28 2016

NOTE: "FAIR" INDICATES FEW OR NO CLOUDS BELOW 12000 FEET WITH NO
SIGNIFICANT WEATHER AND/OR OBSTRUCTIONS TO VISIBILITY.

MTZ001>007-043-281400-
WEST OF THE DIVIDE

CITY           SKY/WX    TMP DP  RH WIND       PRES   REMARKS
KALISPELL      CLEAR     50  42  74 E7        29.95R
MISSOULA       CLEAR     60  44  55 N8        30.01R
BUTTE          CLOUDY    48  33  56 CALM      30.10R
MULLAN PASS    CLEAR     47  36  65 VRB7      30.10R
DEER LODGE       N/A     55  37  50 S5        30.07R
EUREKA           N/A     48  45  87 CALM      29.96R
HAMILTON         N/A     57  39  51 S9        30.02R
LIBBY            N/A     55  37  50 CALM      29.95R
PLAINS           N/A     56  42  59 CALM      29.99
RONAN            N/A     61  43  51 N2        30.03R
$$

MTZ008-052>055-281400-
SOUTHWEST MONTANA

CITY           SKY/WX    TMP DP  RH WIND       PRES   REMARKS
BOZEMAN        CLEAR     49  38  65 SE6       30.05R
DILLON         PTCLDY    57  27  31 SE7       30.08R HAZE
W YELLOWSTONE  CLOUDY    32  23  69 SW3       30.23R HAZE
ENNIS          PTCLDY    55  27  33 S10       30.14R
$$

MTZ009-010-012-014-046-048-049-054-281400-
EAST SLOPES AND CENTRAL MONTANA

CITY           SKY/WX    TMP DP  RH WIND       PRES   REMARKS
CUT BANK       CLEAR     48  45  89 N14       29.97R
GREAT FALLS    MOCLDY    62  41  46 SW10      29.93R
MALMSTROM AFB  PTCLDY    68  42  37 MISG      29.94R
HELENA         PTCLDY    61  40  45 SW5       30.01R
CHOTEAU          N/A     57  39  51 CALM      29.98R
CONRAD           N/A     60  46  59 W5        29.98R
$$

MTZ011-013-016-021-045-047-050-051-281400-
NORTH CENTRAL MONTANA

CITY           SKY/WX    TMP DP  RH WIND       PRES   REMARKS
HAVRE          CLOUDY    60  54  80 NW15      29.89R
LEWISTOWN      MOCLDY    62  44  51 SE5       29.97R
N BAR RANCH      N/A     63  37  39 CALM      30.00R
CHINOOK          N/A     63  52  67 W7        29.87R
$$

MTZ017>020-022>027-061-062-281400-
NORTHEAST MONTANA

CITY           SKY/WX    TMP DP  RH WIND       PRES   REMARKS
GLASGOW        CLOUDY    60  46  59 VRB3      29.83R
JORDAN           N/A     59  40  49 W9        29.85R
SIDNEY         CLOUDY    53  49  86 S5        29.84R
WOLF POINT     CLOUDY    58  44  60 CALM      29.81R
POPLAR           N/A     61  45  55 CALM      29.81R
SCOBEY           N/A     59  40  49 CALM      29.83
$$

MTZ028>42-056>058-281400-
SOUTHCENTRAL AND SOUTHEAST MONTANA

CITY           SKY/WX    TMP DP  RH WIND       PRES   REMARKS
BAKER          CLOUDY    52  49  89 CALM      29.92R
BILLINGS       PTCLDY    62  36  37 SW15      29.95R
LIVINGSTON     CLEAR     64  29  26 W14G24    30.03R
MILES CITY     PTCLDY    60  44  55 S12       29.88R
EKALAKA          N/A     64  42  44 SE5       29.93
FORSYTH          N/A     61  43  51 CALM      29.89R
LAUREL           N/A     54  37  52 CALM      29.96R
ROUNDUP          N/A     59  36  42 S12       29.87R
$$

REGIONAL REPORTS...DAKOTAS

CITY           SKY/WX    TMP DP  RH WIND       PRES   REMARKS
WILLISTON      PTCLDY    64  52  64 S6        29.84R
MINOT          CLEAR     63  53  70 S3        29.86R
DICKINSON      CLEAR     54  51  90 SE5       29.89R
CROSBY           N/A     63  54  72 S12       29.83S
WATFORD CITY     N/A     61  55  82 S5        29.87R
BISMARCK       CLEAR     59  58  96 NE6       29.91R
GRAND FORKS    SUNNY     59  57  93 S8        29.99R
FARGO          SUNNY     65  60  84 SE12      30.01R
BUFFALO SD       N/A     60  55  83 CALM      29.87R
RAPID CITY     CLEAR     52  49  89 CALM      29.95R
$$

REGIONAL REPORTS...WYOMING/IDAHO/WASHINGTON

CITY           SKY/WX    TMP DP  RH WIND       PRES   REMARKS
GILLETTE       CLEAR     47  35  63 CALM      30.01R
SHERIDAN       CLEAR     50  39  66 CALM      29.98R
BUFFALO WY     CLEAR     65  26  23 W10       30.05R
CODY           CLEAR     63  28  27 SW7       30.07R
YELLOWSTONE LA   N/A     32  29  88 CALM      30.31R
IDAHO FALLS    CLOUDY    45  37  73 VRB5      30.12R
SALMON         PTCLDY    46  34  61 CALM      30.07R
BOISE          CLEAR     59  38  45 S6        30.04R
SPOKANE        PTCLDY    55  44  66 S10       29.97R
$$

REGIONAL REPORTS...ALBERTA

CITY           SKY/WX    TMP DP  RH WIND       PRES   REMARKS
EDMONTON       CLOUDY    45  39  81 NW15G29   29.95R
CALGARY        MOCLDY    45  39  81 N16G23    30.01R
LETHBRIDGE     CLOUDY    54  50  87 N10G18    29.99R
MEDICINE HAT   PTCLDY    48  46  93 S2        29.94R
WATERTON GATE    N/A     41  39  93 NE2         N/A
CARDSTON         N/A     43  43 100 W2          N/A
MILK RIVER       N/A     45  43  93 NW7         N/A
$$

REGIONAL REPORTS...SASKATCHEWAN

CITY           SKY/WX    TMP DP  RH WIND       PRES   REMARKS
SWIFT CURRENT  MOCLDY    55  54  94 NW15G22   29.87R
REGINA         CLOUDY    59  50  72 SE7       29.78R
SASKATOON      MOCLDY    59  57  94 W13       29.76R
CYPRESS HILLS    N/A     48  46  93 NW9G18      N/A
VAL MARIE        N/A     57  52  82 N9          N/A
ROCKGLEN         N/A     64  43  45 W10         N/A
ASSINIBOIA       N/A     48  46  93 NW18G26     N/A
$$




USA.gov is the U.S. government's official web portal to all federal, state and local government web resources and services.